ONEWEB-0318 (49104 NORAD) Tracking and Keplerian Element Data

This shows tracking and keplerian element data for the satellite.

Feedback or suggestion? Click here.




ElementValue
Catalog49104
NameONEWEB-0318
Epoch Orbit1143
Epoch Day300.91667824
Epoch Year2021
RAAN342.576
Inclination87.1967
Eccentricity0.0020984
Argument of Perigee50.636
Mean Anonmoly47.9936
Mean Motion14.85797853
Decay Rate0.00029202
L11 49104U 21075AF 21300.91667824 .00029202 00000-0 33332-2 0 9993
L22 49104 87.1967 342.5760 0020984 50.6360 47.9936 14.85797853 11432

Live tracking and technical data element details for ONEWEB-0318 (NORAD 49104). ONEWEB-0318 can be tracked NOW for your location showing map with azimuth and elevation plus other details from your city location.

Track the satellite on the map from your city or location and see movement details for azimuth, elevation, latitude, longitude, range, height, and movement on the map or in text.







IsCatalogInMostPopularTable: catalog: 49104, numindb: 20
Update: records affected: 1



GetName: 49104 ONEWEB-0318

Hit Count: updated at: Thu, 28 Oct 2021 11:55:40 GMT